Location: Ethel Rock
(53.4667°N, 4.5667°W)
Time: 01:04:09
(UTC+00:00)

Cosmos 1689 Rocket - Pass Details

Date: 24 October 2020
Orbit: 360 x 375 km, 97.5° (Epoch: 26 November)

Event Time Altitude Azimuth Distance (km) Brightness Sun altitude
Rises 04:32:05 0° 137° (SE) 2,241 6.4 -22.9°
Reaches altitude 10° 04:34:14 10° 123° (ESE) 1,390 5.5 -22.6°
Maximum altitude 04:36:42 24° 66° (ENE) 832 4.5 -22.3°
Drops below altitude 10° 04:39:10 10° 10° (N) 1,391 5.1 -21.9°
Sets 04:41:19 0° 356° (N) 2,243 6.0 -21.6°
